Location: Eaton Estates
(41.3089°N, 82.0057°W)
Time: 06:22:46
(UTC+00:00)

Cosmos 1536 Rocket - Pass Details

Date: 17 June 2021
Orbit: 604 x 633 km, 82.5° (Epoch: 27 July)

Event Time Altitude Azimuth Distance (km) Brightness Sun altitude
Exits shadow 03:26:46 45° 161° (SSE) 867 3.8 -19.4°
Maximum altitude 03:28:00 68° 95° (E) 682 3.6 -19.5°
Drops below altitude 10° 03:32:27 10° 13° (NNE) 2,016 6.8 -19.9°
Sets 03:34:42 0° 11° (N) 2,925 7.8 -20.1°
